#timestamp,LO_Frequency,Hit,StdDev 
1570528815.4,286047000.9,N
1570528835.2,286047000.9,N
1570528855.0,286046999.4,N
1570528855.9,286046999.4,N
1570528875.8,286047000.9,N
1570528895.6,286046995.5,N
1570528915.4,286046995.2,N
1570528935.3,286046995.7,N
1570528955.1,286046999.6,N
1570528975.9,286046996.4,N
1570528995.7,286046995.3,N
1570529015.5,286046998.9,N
1570529035.4,286047000.5,N
1570529055.2,286047000.0,N
1570529075.0,286046998.2,N
1570529075.9,286046998.2,N
1570529095.8,286047001.0,N
1570529115.6,286046998.1,N
1570529135.5,286046997.4,N
1570529155.3,286047001.2,N
1570529175.1,286046997.0,N
1570529195.9,286046997.3,N
1570529215.7,286046995.7,N
1570529235.5,286046998.1,N
1570529255.4,286047001.8,N
1570529275.2,286046999.6,N
1570529295.1,286046997.5,N
1570529296.0,286046997.5,N
1570529315.8,286047001.3,N
1570529335.6,286047001.5,N
1570529355.5,286046998.6,N
1570529375.3,286047000.7,N
1570529395.1,286047001.3,N
1570529415.9,286047000.0,N
1570529435.7,286047000.8,N
1570529455.6,286047000.7,N
1570529475.4,286046999.3,N
1570529495.2,286046996.2,N
1570529515.1,286046994.3,Y
1570529516.0,286046994.3,P
1570529535.8,286046996.3,N
1570529555.6,286046995.7,N
1570529575.5,286046998.6,N
1570529595.3,286046998.9,N
1570529615.2,286046996.5,N
1570529635.9,286046997.6,N
1570529655.7,286046997.7,N
1570529675.6,286046997.5,N
1570529695.4,286047000.9,N
1570529715.2,286047000.9,N
1570529735.1,286046997.6,N
1570529736.0,286046997.6,N
1570529755.8,286046995.2,N
1570529775.7,286046994.1,Y
1570529795.5,286046994.7,P
1570529815.3,286046990.1,P
1570529835.2,286046992.9,N
1570529855.0,286046994.0,N
1570529855.9,286046994.0,N
1570529875.8,286046998.9,N
1570529895.6,286046997.9,N
1570529915.4,286046997.2,N
1570529935.3,286046998.1,N
1570529955.1,286047001.2,N
1570529975.8,286047004.3,N
1570529995.7,286047003.1,N
1570530015.5,286047002.1,N
1570530035.3,286047000.2,N
1570530055.2,286047003.9,N
1570530075.0,286047002.7,N
1570530075.9,286047002.7,N
1570530095.8,286046999.2,N
1570530115.6,286046997.4,N
1570530135.4,286046995.7,N
1570530155.3,286046996.7,N
1570530175.1,286046995.6,N
1570530195.9,286046993.4,N
1570530215.7,286046992.3,N
1570530235.5,286046993.5,N
1570530255.4,286046994.3,N
1570530275.2,286046996.6,N
1570530295.0,286046997.5,N
1570530295.9,286046997.5,N
1570530315.8,286046999.2,N
1570530335.6,286046999.6,N
1570530355.5,286046996.9,N
1570530375.3,286046997.3,N
1570530395.1,286046997.1,N
1570530415.9,286046998.3,N
1570530435.7,286046998.1,N
1570530455.5,286046999.1,N
1570530475.4,286046996.5,N
1570530495.2,286046997.4,N
1570530545.1,286046996.9,E
1570530555.0,286047001.1,N
1570530555.9,286047001.1,P
1570530575.7,286046998.5,P
1570530595.6,286046999.0,N
1570530615.4,286046998.6,N
1570530635.3,286046996.9,N
1570530655.1,286046996.5,N
1570530656.0,286046996.5,N
1570530675.8,286046997.5,N
1570530695.7,286046990.9,Y
1570530715.5,286046993.2,P
1570530735.4,286046997.6,N
1570530755.2,286047000.0,N
1570530775.0,286047002.3,N
1570530775.9,286047002.3,N
1570530795.8,286047000.0,N
1570530815.6,286046998.8,N
1570530835.4,286047003.4,N
1570530855.3,286047003.9,N
1570530875.1,286047001.8,N
1570530895.9,286046996.9,N
1570530915.7,286046999.2,N
1570530935.5,286047002.5,N
1570530955.4,286047002.2,N
1570530975.2,286047004.3,N
1570530995.0,286047003.1,N
1570530995.9,286047003.1,N
1570531015.8,286047003.0,N
1570531035.6,286047004.3,N
1570531055.4,286047002.8,N
1570531075.3,286047000.2,N
1570531095.1,286047001.0,N
1570531115.9,286046999.8,N
1570531135.7,286047001.6,N
1570531155.5,286047001.3,N
1570531175.4,286046999.9,N
1570531195.2,286047005.9,N
1570531215.0,286047003.7,N
1570531216.0,286047003.7,N
1570531235.8,286047003.3,N
1570531255.6,286047004.8,N
1570531275.5,286047002.0,N
1570531295.3,286047002.2,N
1570531315.1,286047003.7,N
1570531335.9,286047001.3,N
1570531355.7,286047004.2,N
1570531375.6,286047004.4,N
1570531395.4,286047001.7,N
1570531415.2,286047004.3,N
1570531435.1,286047003.5,N
1570531436.0,286047003.5,N
1570531455.8,286047005.6,Y
1570531475.6,286047005.5,P
1570531495.5,286047000.8,N
1570531515.3,286047002.6,N
1570531535.2,286047002.7,N
1570531555.9,286047000.7,N
1570531575.7,286047001.1,N
1570531595.6,286046998.7,N
1570531615.4,286046997.1,N
1570531635.2,286046997.4,N
1570531655.1,286046999.3,N
1570531656.0,286046999.3,N
1570531675.8,286047001.0,N
1570531695.7,286046998.4,N
1570531715.5,286046997.7,N
1570531735.3,286046995.3,N
1570531755.2,286046998.1,N
1570531775.0,286046998.1,N
1570531775.9,286046998.1,N
1570531795.8,286046997.3,N
1570531815.6,286046993.6,N
1570531835.4,286046990.1,Y
1570531855.3,286046991.7,P
1570531875.1,286046991.7,N
1570531895.9,286046992.3,N
1570531915.7,286046992.6,N
1570531935.5,286046995.1,N
1570531955.4,286046993.4,N
1570531975.2,286046992.9,N
1570531995.0,286046990.9,Y
1570531995.9,286046990.9,P
1570532015.8,286046996.7,N
1570532065.6,286046995.2,E
1570532075.6,286046998.1,N
1570532095.4,286047001.2,P
1570532115.2,286047001.1,N
1570532135.1,286047002.2,N
1570532136.0,286047002.2,N
1570532155.8,286047003.1,N
1570532175.6,286047000.5,N
1570532195.5,286047000.7,N
1570532215.3,286046999.9,N
1570532235.2,286047000.0,N
1570532255.9,286047000.8,N
1570532275.7,286046999.7,N
1570532295.6,286047002.0,N
1570532315.4,286047001.0,N
1570532335.2,286047000.9,N
1570532355.1,286047000.8,N
1570532356.0,286047000.8,N
1570532375.8,286046998.5,N
1570532395.7,286046999.0,N
